STARLINK-34252

Last updated on Thu Jul 03 2025 00:02:06 GMT+0000 (Coordinated Universal Time)

1 64330U 25124P 25183.58335648 -.01557876 00000+0 -34382-1 0 9992 2 64330 42.9997 98.9055 0001723 276.3925 146.2426 15.46180596 4634
UTC large
Height (km)
Speed (km/s)
/
Latitude / Longitude
Inclination (degrees)
Orbital Period (minutes)
Azimuth
Elevation
Range (km)
Doppler Factor

Next 0 passes for location: London (51.5072 / 0.1276)

Sorry there are no passes over London.